R/V Knorr Calliope CSV data file  (Time stamps are GMT)
Date, Time_GMT, Depth12, Depth35, Air_Temp, WXT5_Ta, WXT5_Pa, dec_lat, dec_lon, GPS_COG, GPS_SOG, Gyro, IMET_BPR, IMET_SWR, WXT5_Ri, WXT5_Rc, HRH, WXT5_Ua, WXT5_Dm, WXT5_Sm, SBE45C, SBE45S, SBE45T, Salinity, SSCND, Fluorometer, SSTMP, SSV, Wnd_Dir, TWD5, Wnd_Spd, TWS5, HdChkSum=3E
2009/04/11, 00:00:22, , , 27.31, 27.10, 1008.4, 2.8149200, -102.7764330, 301.30, 11.75, 303.70, 1007.90, 137.10, 0.0, 177.81, 79.27, 75.8, 46, 5.0, 57.67880, 34.64010, 29.8626, 34.6401, 57.6788, 67.40, 27.8512, 1540.60, 77.20, 70.8, 5.07, 3.9, 3E
2009/04/11, 00:01:22, , , 27.29, 27.10, 1008.4, 2.8168020, -102.7792080, 306.20, 12.17, 303.50, 1007.88, 133.80, 0.0, 177.81, 79.01, 75.8, 47, 4.5, 57.67110, 34.63700, 29.8596, 34.6370, 57.6711, 67.10, 27.8517, 1540.60, 81.40, 77.9, 5.04, 4.1, 3E
2009/04/11, 00:02:23, , , 27.34, 27.20, 1008.1, 2.8186720, -102.7819780, 307.00, 12.43, 303.80, 1007.77, 132.70, 0.0, 177.81, 79.37, 76.9, 57, 5.0, 57.66530, 34.63260, 29.8603, 34.6326, 57.6653, 67.40, 27.8500, 1540.59, 76.90, 65.4, 5.36, 5.3, 3E
2009/04/11, 00:03:23, , , 27.34, 27.20, 1008.1, 2.8205580, -102.7847000, 304.30, 11.77, 303.60, 1008.09, 128.60, 0.0, 177.81, 80.02, 75.6, 55, 5.6, 57.65750, 34.62930, 29.8575, 34.6293, 57.6575, 67.10, 27.8516, 1540.59, 73.00, 64.8, 5.64, 5.6, 3E
2009/04/11, 00:04:22, , , 27.28, 27.20, 1008.2, 2.8224020, -102.7874880, 305.20, 11.56, 303.70, 1008.17, 123.60, 0.0, 177.81, 79.53, 76.5, 54, 5.4, 57.65310, 34.62600, 29.8580, 34.6260, 57.6531, 67.10, 27.8566, 1540.60, 68.50, 62.3, 6.24, 5.0, 3E
2009/04/11, 00:05:22, , , 27.28, 27.20, 1008.3, 2.8242870, -102.7902780, 302.20, 11.90, 302.30, 1008.34, 121.20, 0.0, 177.81, 79.23, 76.9, 52, 5.1, 57.64690, 34.62070, 29.8596, 34.6207, 57.6469, 67.40, 27.8616, 1540.61, 76.20, 75.1, 5.63, 5.2, 3E
2009/04/11, 00:06:22, , , 27.32, 27.20, 1008.3, 2.8261720, -102.7930970, 299.50, 12.20, 303.00, 1008.06, 117.50, 0.0, 177.81, 79.75, 76.9, 45, 5.1, 57.63820, 34.61780, 29.8553, 34.6178, 57.6382, 67.10, 27.8647, 1540.61, 72.20, 64.7, 5.60, 4.5, 3E
2009/04/11, 00:07:22, , , 27.27, 27.20, 1008.3, 2.8280400, -102.7958650, 303.10, 11.79, 304.40, 1008.29, 116.60, 0.0, 177.81, 79.85, 77.8, 50, 5.8, 57.63050, 34.61360, 29.8540, 34.6136, 57.6305, 67.40, 27.8703, 1540.62, 81.90, 61.9, 4.72, 3.6, 3E
2009/04/11, 00:08:22, , , 27.25, 27.10, 1008.5, 2.8298750, -102.7985670, 306.00, 11.85, 304.00, 1008.12, 111.80, 0.0, 177.81, 79.93, 76.5, 50, 5.8, 57.62190, 34.61060, 29.8501, 34.6106, 57.6219, 67.40, 27.8764, 1540.63, 71.90, 60.3, 5.30, 4.3, 3E
2009/04/11, 00:09:22, , , 27.18, 27.10, 1008.1, 2.8317800, -102.8012970, 305.50, 11.82, 304.50, 1008.26, 111.80, 0.0, 177.81, 79.35, 76.3, 47, 5.3, 57.61640, 34.60720, 29.8495, 34.6072, 57.6164, 67.70, 27.8830, 1540.64, 71.30, 68.1, 5.28, 4.6, 3E
2009/04/11, 00:10:22, , , 27.21, 27.10, 1008.4, 2.8337380, -102.8039830, 307.40, 12.03, 304.00, 1008.13, 106.90, 0.0, 177.81, 78.88, 76.2, 52, 5.7, 57.60980, 34.60270, 29.8495, 34.6027, 57.6098, 67.70, 27.8876, 1540.65, 75.40, 65.7, 5.05, 4.2, 3E
2009/04/11, 00:11:22, , , 27.21, 27.10, 1008.4, 2.8356650, -102.8067370, 302.60, 11.66, 304.40, 1008.15, 102.50, 0.0, 177.81, 78.45, 76.1, 50, 5.0, 57.60400, 34.59940, 29.8487, 34.5994, 57.6040, 67.70, 27.8897, 1540.65, 75.20, 72.8, 5.51, 4.5, 3E
2009/04/11, 00:12:22, , , 27.28, 27.10, 1008.5, 2.8375350, -102.8094550, 300.70, 11.78, 303.00, 1008.08, 100.50, 0.0, 177.81, 78.92, 75.2, 52, 4.9, 57.59270, 34.59670, 29.8419, 34.5967, 57.5927, 67.70, 27.8880, 1540.64, 69.90, 66.0, 5.56, 4.9, 3E
2009/04/11, 00:13:22, , , 27.34, 27.20, 1008.6, 2.8393920, -102.8121820, 295.80, 11.94, 303.60, 1008.11, 96.90, 0.0, 177.81, 79.56, 76.7, 50, 5.7, 57.58600, 34.59310, 29.8405, 34.5931, 57.5860, 67.70, 27.8864, 1540.63, 72.40, 62.0, 5.09, 4.8, 3E
2009/04/11, 00:14:22, , , 27.34, 27.20, 1008.3, 2.8412300, -102.8148230, 306.60, 11.95, 304.40, 1008.04, 94.70, 0.0, 177.81, 79.64, 76.7, 56, 5.8, 57.57890, 34.59020, 29.8379, 34.5902, 57.5789, 67.40, 27.8889, 1540.64, 69.40, 60.4, 5.56, 5.6, 3E
2009/04/11, 00:15:22, , , 27.28, 27.20, 1008.5, 2.8431470, -102.8174850, 305.50, 11.80, 303.80, 1008.02, 88.50, 0.0, 177.81, 79.74, 75.3, 54, 5.2, 57.57500, 34.58720, 29.8384, 34.5872, 57.5750, 67.40, 27.8889, 1540.63, 70.00, 68.4, 5.93, 5.4, 3E
2009/04/11, 00:16:22, , , 27.26, 27.10, 1008.3, 2.8450130, -102.8201870, 303.50, 12.18, 303.20, 1008.24, 85.70, 0.0, 177.81, 79.39, 74.5, 56, 4.9, 57.57200, 34.58510, 29.8384, 34.5851, 57.5720, 67.70, 27.8886, 1540.63, 73.00, 70.3, 5.58, 5.1, 3E
2009/04/11, 00:17:22, , , 27.18, 27.10, 1008.5, 2.8468620, -102.8229500, 301.90, 11.99, 303.30, 1008.09, 82.20, 0.0, 177.81, 78.05, 75.9, 51, 5.2, 57.56290, 34.58230, 29.8337, 34.5823, 57.5629, 67.70, 27.8870, 1540.62, 77.40, 65.0, 5.84, 5.0, 3E
2009/04/11, 00:18:22, , , 27.24, 27.10, 1008.6, 2.8487470, -102.8257720, 303.90, 11.76, 303.50, 1008.29, 81.00, 0.0, 177.81, 77.76, 75.5, 48, 5.9, 57.55790, 34.58010, 29.8321, 34.5801, 57.5579, 67.70, 27.8882, 1540.62, 72.00, 60.8, 5.22, 4.0, 3E
2009/04/11, 00:19:22, , , 27.34, 27.20, 1008.7, 2.8505650, -102.8285070, 298.50, 12.46, 304.40, 1008.19, 77.80, 0.0, 177.81, 78.60, 75.3, 58, 5.6, 57.55130, 34.57880, 29.8277, 34.5788, 57.5513, 67.70, 27.8875, 1540.62, 67.90, 63.2, 5.28, 5.1, 3E
2009/04/11, 00:20:23, , , 27.25, 27.20, 1008.6, 2.8524730, -102.8313200, 303.90, 12.24, 303.50, 1008.41, 72.70, 0.0, 177.81, 78.11, 76.6, 48, 5.8, 57.54860, 34.57680, 29.8279, 34.5768, 57.5486, 68.00, 27.8883, 1540.62, 74.40, 62.8, 5.47, 4.7, 3E
2009/04/11, 00:21:22, , , 27.33, 27.20, 1008.5, 2.8543170, -102.8340580, 302.70, 12.14, 304.30, 1008.30, 72.40, 0.0, 177.81, 78.96, 76.1, 43, 5.9, 57.54720, 34.57530, 29.8286, 34.5753, 57.5472, 68.00, 27.8887, 1540.62, 70.00, 59.9, 5.07, 3.9, 3E
2009/04/11, 00:22:23, , , 27.23, 27.20, 1008.6, 2.8562000, -102.8368950, 299.70, 12.01, 303.40, 1008.48, 68.40, 0.0, 177.81, 78.46, 75.3, 46, 5.3, 57.54470, 34.57360, 29.8286, 34.5736, 57.5447, 68.00, 27.8932, 1540.63, 71.40, 69.0, 5.02, 3.9, 3E
2009/04/11, 00:23:23, , , 27.26, 27.20, 1008.6, 2.8579950, -102.8396600, 305.80, 12.07, 304.00, 1008.43, 65.90, 0.0, 177.81, 78.62, 75.9, 49, 5.5, 57.53750, 34.57250, 29.8234, 34.5725, 57.5375, 68.00, 27.9061, 1540.65, 70.00, 62.4, 5.71, 5.2, 3E
2009/04/11, 00:24:22, , , 27.37, 27.20, 1008.6, 2.8598450, -102.8424450, 303.40, 12.24, 302.70, 1008.53, 62.60, 0.0, 177.81, 79.87, 75.7, 46, 5.7, 57.53440, 34.57040, 29.8235, 34.5704, 57.5344, 68.00, 27.9164, 1540.68, 74.90, 64.5, 4.83, 4.0, 3E
2009/04/11, 00:25:23, , , 27.26, 27.20, 1008.5, 2.8616970, -102.8452730, 301.50, 11.81, 304.50, 1008.27, 58.40, 0.0, 177.81, 79.28, 76.4, 50, 5.2, 57.53280, 34.56940, 29.8233, 34.5694, 57.5328, 68.60, 27.9217, 1540.69, 76.10, 69.5, 4.82, 3.9, 3E
2009/04/11, 00:26:22, , , 27.30, 27.20, 1008.7, 2.8635180, -102.8479900, 304.90, 11.51, 303.70, 1008.34, 55.90, 0.0, 177.81, 79.52, 75.7, 52, 5.4, 57.52790, 34.56880, 29.8195, 34.5688, 57.5279, 68.30, 27.9235, 1540.69, 71.60, 63.3, 5.58, 4.5, 3E
2009/04/11, 00:27:22, , , 27.22, 27.20, 1008.8, 2.8653830, -102.8507550, 304.10, 11.81, 304.00, 1008.38, 55.30, 0.0, 177.81, 79.09, 75.2, 48, 5.6, 57.52130, 34.56830, 29.8139, 34.5683, 57.5213, 68.00, 27.9228, 1540.69, 74.10, 66.3, 5.39, 5.0, 3E
2009/04/11, 00:28:22, , , 27.28, 27.20, 1008.7, 2.8672880, -102.8535050, 305.70, 11.94, 302.70, 1008.51, 52.10, 0.0, 177.81, 79.49, 76.6, 51, 5.5, 57.51660, 34.56780, 29.8103, 34.5678, 57.5166, 68.00, 27.9239, 1540.69, 71.40, 59.4, 5.71, 5.2, 3E
2009/04/11, 00:29:22, , , 27.26, 27.20, 1008.8, 2.8691700, -102.8563420, 302.90, 11.86, 302.90, 1008.48, 48.30, 0.0, 177.81, 80.07, 75.6, 43, 5.4, 57.51740, 34.56780, 29.8109, 34.5678, 57.5174, 68.30, 27.9237, 1540.69, 69.40, 60.7, 5.25, 4.2, 3E
2009/04/11, 00:30:22, , , 27.21, 27.20, 1008.5, 2.8710280, -102.8591350, 300.50, 11.99, 303.80, 1008.25, 47.70, 0.0, 177.81, 79.19, 76.2, 49, 5.8, 57.51390, 34.56770, 29.8078, 34.5677, 57.5139, 68.00, 27.9242, 1540.69, 72.90, 59.8, 4.62, 4.4, 3E
2009/04/11, 00:31:22, , , 27.20, 27.10, 1008.6, 2.8729020, -102.8619470, 304.00, 12.47, 303.90, 1008.44, 43.70, 0.0, 177.81, 78.74, 74.8, 58, 5.3, 57.51330, 34.56680, 29.8084, 34.5668, 57.5133, 68.30, 27.9265, 1540.69, 70.80, 71.6, 5.62, 4.9, 3E
2009/04/11, 00:32:22, , , 27.26, 27.20, 1008.9, 2.8747770, -102.8646720, 306.40, 12.32, 304.20, 1008.29, 40.80, 0.0, 177.81, 79.94, 76.6, 47, 5.9, 57.50860, 34.56640, 29.8046, 34.5664, 57.5086, 68.30, 27.9282, 1540.70, 69.20, 56.5, 5.58, 4.5, 3E
2009/04/11, 00:33:22, , , 27.22, 27.10, 1008.7, 2.8766750, -102.8675250, 306.30, 11.90, 303.20, 1008.76, 39.20, 0.0, 177.81, 79.50, 77.4, 47, 6.3, 57.50890, 34.56600, 29.8054, 34.5660, 57.5089, 68.30, 27.9272, 1540.69, 71.10, 57.4, 5.53, 4.6, 3E
2009/04/11, 00:34:23, , , 27.22, 27.10, 1008.8, 2.8783800, -102.8704280, 296.90, 12.81, 296.80, 1008.44, 37.60, 0.0, 177.81, 79.66, 76.6, 44, 5.0, 57.50890, 34.56620, 29.8052, 34.5662, 57.5089, 68.30, 27.9319, 1540.71, 61.50, 63.0, 4.95, 3.7, 3E
2009/04/11, 00:35:22, , , 27.22, 27.10, 1009.1, 2.8798270, -102.8734830, 298.50, 12.32, 296.20, 1008.39, 34.90, 0.0, 177.81, 80.15, 76.8, 46, 4.5, 57.50720, 34.56700, 29.8024, 34.5670, 57.5072, 68.30, 27.9362, 1540.72, 73.10, 76.9, 4.47, 3.8, 3E
2009/04/11, 00:36:23, , , 27.18, 27.10, 1008.8, 2.8812450, -102.8765330, 294.30, 11.99, 296.00, 1008.49, 31.50, 0.0, 177.81, 80.30, 77.1, 51, 4.9, 57.50670, 34.56820, 29.8003, 34.5682, 57.5067, 68.30, 27.9418, 1540.73, 67.80, 60.4, 5.05, 4.8, 3E
2009/04/11, 00:37:22, , , 27.16, 27.10, 1008.9, 2.8826520, -102.8795250, 295.30, 12.22, 294.80, 1008.65, 30.40, 0.0, 177.81, 80.60, 77.4, 45, 4.8, 57.50950, 34.56950, 29.8011, 34.5695, 57.5095, 68.00, 27.9458, 1540.74, 67.50, 63.1, 5.39, 4.3, 3E
2009/04/11, 00:38:23, , , 27.18, 27.10, 1008.8, 2.8840300, -102.8825920, 295.00, 12.11, 295.60, 1008.64, 27.00, 0.0, 177.81, 80.39, 77.1, 41, 4.8, 57.51500, 34.57090, 29.8043, 34.5709, 57.5150, 68.30, 27.9489, 1540.75, 69.60, 65.4, 5.20, 4.1, 3E
2009/04/11, 00:39:22, , , 27.20, 27.10, 1008.9, 2.8854470, -102.8856470, 294.20, 12.11, 293.90, 1008.62, 25.90, 0.0, 177.81, 80.53, 77.1, 51, 5.0, 57.51690, 34.57320, 29.8029, 34.5732, 57.5169, 68.00, 27.9508, 1540.75, 66.30, 63.7, 5.32, 4.8, 3E
2009/04/11, 00:40:22, , , 27.15, 27.10, 1008.9, 2.8868130, -102.8887280, 293.60, 12.17, 295.10, 1008.66, 24.40, 0.0, 177.81, 80.79, 77.0, 44, 4.5, 57.51940, 34.57480, 29.8031, 34.5748, 57.5194, 68.00, 27.9507, 1540.76, 71.80, 69.8, 5.04, 4.2, 3E
2009/04/11, 00:41:22, , , 27.13, 27.10, 1008.8, 2.8882700, -102.8918200, 296.40, 12.09, 294.60, 1008.46, 21.60, 0.0, 177.81, 80.58, 77.2, 47, 4.3, 57.51990, 34.57630, 29.8015, 34.5763, 57.5199, 68.00, 27.9515, 1540.76, 72.60, 73.1, 4.93, 3.9, 3E
2009/04/11, 00:42:22, , , 27.13, 27.10, 1008.9, 2.8896700, -102.8948780, 295.30, 11.89, 295.20, 1008.71, 19.30, 0.0, 177.81, 80.71, 76.9, 44, 3.9, 57.52620, 34.57800, 29.8050, 34.5780, 57.5262, 68.30, 27.9509, 1540.76, 75.20, 76.1, 4.73, 3.9, 3E
2009/04/11, 00:43:22, , , 27.14, 27.10, 1008.9, 2.8910800, -102.8978900, 293.10, 11.97, 296.30, 1008.59, 16.80, 0.0, 177.81, 81.12, 77.6, 51, 5.2, 57.53070, 34.57890, 29.8080, 34.5789, 57.5307, 68.30, 27.9492, 1540.76, 76.70, 60.5, 5.04, 4.3, 3E
2009/04/11, 00:44:23, , , 27.10, 27.00, 1008.9, 2.8925750, -102.9010020, 297.50, 12.30, 294.60, 1008.65, 15.80, 0.0, 177.81, 80.39, 76.5, 45, 4.6, 57.53200, 34.57930, 29.8087, 34.5793, 57.5320, 68.60, 27.9481, 1540.76, 66.20, 64.1, 5.20, 4.5, 3E
2009/04/11, 00:45:23, , , 27.06, 27.00, 1008.9, 2.8939620, -102.9041130, 293.70, 12.09, 294.00, 1008.75, 14.80, 0.0, 177.81, 80.63, 77.3, 44, 5.3, 57.53560, 34.58060, 29.8103, 34.5806, 57.5356, 68.60, 27.9456, 1540.75, 69.40, 69.3, 4.97, 4.2, 3E
2009/04/11, 00:46:22, , , 27.12, 27.00, 1008.9, 2.8953870, -102.9071920, 295.00, 12.61, 295.50, 1008.66, 13.60, 0.0, 177.81, 80.83, 76.5, 43, 5.1, 57.53870, 34.58160, 29.8118, 34.5816, 57.5387, 68.90, 27.9427, 1540.75, 68.70, 62.9, 5.01, 4.3, 3E
2009/04/11, 00:47:23, , , 27.04, 27.00, 1008.9, 2.8968320, -102.9102380, 294.30, 12.10, 294.80, 1008.73, 12.50, 0.0, 177.81, 80.01, 76.7, 55, 4.8, 57.53690, 34.58150, 29.8102, 34.5815, 57.5369, 68.60, 27.9381, 1540.74, 70.30, 69.1, 4.98, 4.8, 3E
2009/04/11, 00:48:23, , , 27.08, 27.00, 1008.9, 2.8982920, -102.9132950, 298.90, 12.41, 295.40, 1008.54, 11.20, 0.0, 177.81, 80.67, 77.7, 43, 5.3, 57.53830, 34.58320, 29.8091, 34.5832, 57.5383, 68.90, 27.9332, 1540.73, 67.50, 56.4, 5.42, 4.3, 3E
2009/04/11, 00:49:23, , , 27.13, 27.00, 1008.9, 2.8996880, -102.9163120, 294.00, 12.10, 295.00, 1008.71, 10.50, 0.0, 177.81, 80.77, 77.4, 45, 4.8, 57.53510, 34.58320, 29.8062, 34.5832, 57.5351, 68.90, 27.9295, 1540.72, 64.70, 64.6, 4.80, 4.2, 3E
2009/04/11, 00:50:23, , , 27.04, 27.00, 1008.9, 2.9011320, -102.9194470, 291.60, 12.22, 293.40, 1008.62, 9.60, 0.0, 177.81, 80.36, 77.6, 44, 4.8, 57.53480, 34.58480, 29.8036, 34.5848, 57.5348, 68.60, 27.9272, 1540.71, 75.80, 72.4, 4.45, 3.6, 3E
2009/04/11, 00:51:22, , , 27.07, 27.00, 1009.0, 2.9024820, -102.9225520, 291.60, 12.52, 295.60, 1008.81, 8.50, 0.0, 177.81, 80.57, 76.7, 44, 4.4, 57.53450, 34.58530, 29.8027, 34.5853, 57.5345, 68.90, 27.9280, 1540.72, 68.40, 72.6, 5.23, 4.5, 3E
2009/04/11, 00:52:22, , , 26.99, 27.00, 1009.0, 2.9038230, -102.9257450, 290.70, 12.56, 290.90, 1008.81, 7.60, 0.0, 177.81, 79.79, 76.0, 40, 3.9, 57.53200, 34.58690, 29.7981, 34.5869, 57.5320, 71.10, 27.9305, 1540.72, 68.50, 65.2, 5.06, 4.6, 3E
2009/04/11, 00:53:22, , , 27.02, 27.00, 1008.9, 2.9050270, -102.9289950, 288.80, 12.64, 291.00, 1008.51, 7.00, 0.0, 177.81, 79.56, 76.3, 49, 4.4, 57.52870, 34.58900, 29.7920, 34.5890, 57.5287, 68.60, 27.9336, 1540.73, 69.90, 69.3, 5.28, 4.1, 3E
2009/04/11, 00:54:22, , , 27.04, 27.00, 1009.0, 2.9062570, -102.9322420, 293.40, 12.33, 292.70, 1008.57, 5.90, 0.0, 177.81, 79.13, 77.0, 47, 4.9, 57.53200, 34.59130, 29.7920, 34.5913, 57.5320, 68.60, 27.9370, 1540.74, 73.40, 69.5, 5.08, 4.3, 3E
2009/04/11, 00:55:22, , , 27.09, 27.00, 1009.0, 2.9075080, -102.9355350, 288.80, 12.47, 290.50, 1008.87, 5.30, 0.0, 177.81, 79.10, 76.1, 56, 4.5, 57.53870, 34.59330, 29.7955, 34.5933, 57.5387, 68.00, 27.9394, 1540.75, 71.40, 63.4, 5.18, 4.8, 3E
2009/04/11, 00:56:23, , , 27.00, 27.00, 1009.0, 2.9086970, -102.9387930, 290.10, 12.36, 291.80, 1008.74, 4.60, 0.0, 177.81, 78.36, 76.8, 46, 5.5, 57.54310, 34.59540, 29.7967, 34.5954, 57.5431, 68.00, 27.9372, 1540.75, 66.30, 52.8, 5.63, 4.6, 3E
2009/04/11, 00:57:23, , , 27.14, 27.10, 1009.0, 2.9099080, -102.9420130, 287.40, 12.25, 291.30, 1008.78, 4.00, 0.0, 177.81, 79.64, 76.2, 42, 4.7, 57.54510, 34.59690, 29.7965, 34.5969, 57.5451, 68.00, 27.9369, 1540.75, 61.70, 66.6, 4.83, 3.8, 3E
2009/04/11, 00:58:23, , , 27.15, 27.10, 1009.0, 2.9111300, -102.9451920, 295.80, 11.93, 292.10, 1008.81, 3.70, 0.0, 177.81, 79.69, 76.2, 42, 4.1, 57.54910, 34.59840, 29.7982, 34.5984, 57.5491, 68.00, 27.9351, 1540.75, 65.20, 66.0, 4.74, 4.3, 3E
2009/04/11, 00:59:22, , , 27.08, 27.00, 1009.0, 2.9122900, -102.9483070, 290.60, 11.80, 290.60, 1008.91, 3.00, 0.0, 177.81, 79.66, 76.2, 41, 3.6, 57.55240, 34.59910, 29.8004, 34.5991, 57.5524, 68.30, 27.9314, 1540.74, 71.20, 71.5, 4.79, 4.2, 3E
2009/04/11, 01:00:22, , , 27.12, 27.00, 1009.1, 2.9134430, -102.9514630, 292.50, 12.13, 290.40, 1008.92, 2.30, 0.0, 177.81, 79.91, 75.9, 47, 4.1, 57.55240, 34.59940, 29.8000, 34.5994, 57.5524, 68.00, 27.9307, 1540.74, 68.60, 67.7, 5.28, 4.6, 3E
2009/04/11, 01:01:23, , , 27.05, 27.00, 1009.1, 2.9146300, -102.9547230, 293.70, 12.43, 291.10, 1008.71, 2.00, 0.0, 177.81, 79.62, 76.2, 48, 4.6, 57.55600, 34.59930, 29.8034, 34.5993, 57.5560, 68.00, 27.9319, 1540.74, 67.40, 59.6, 5.48, 4.8, 3E
2009/04/11, 01:02:22, , , 27.13, 27.10, 1009.1, 2.9158130, -102.9578600, 290.50, 12.60, 289.20, 1008.79, 1.80, 0.0, 177.81, 79.70, 76.8, 45, 4.5, 57.55570, 34.60070, 29.8012, 34.6007, 57.5557, 68.30, 27.9331, 1540.74, 67.20, 62.9, 5.47, 4.5, 3E
2009/04/11, 01:03:22, , , 27.09, 27.00, 1009.0, 2.9168850, -102.9610680, 292.70, 12.25, 289.90, 1008.81, 1.20, 0.0, 177.81, 79.20, 75.2, 55, 3.8, 57.55930, 34.60080, 29.8046, 34.6008, 57.5593, 68.30, 27.9336, 1540.75, 65.20, 68.2, 5.69, 5.1, 3E
2009/04/11, 01:04:22, , , 27.04, 27.00, 1009.0, 2.9180330, -102.9642520, 295.80, 12.36, 289.70, 1008.86, 1.00, 0.0, 177.81, 79.64, 76.0, 48, 4.5, 57.55820, 34.60140, 29.8027, 34.6014, 57.5582, 68.00, 27.9336, 1540.75, 70.40, 66.0, 5.74, 4.8, 3E
2009/04/11, 01:05:22, , , 27.20, 27.10, 1009.1, 2.9192220, -102.9674230, 294.60, 12.18, 291.00, 1008.63, 0.60, 0.0, 177.81, 80.04, 76.1, 51, 4.6, 57.55350, 34.60140, 29.7982, 34.6014, 57.5535, 68.00, 27.9316, 1540.74, 66.50, 64.6, 5.28, 4.3, 3E
2009/04/11, 01:06:22, , , 27.11, 27.10, 1009.1, 2.9204520, -102.9706180, 290.30, 11.93, 289.70, 1008.87, 0.70, 0.0, 177.81, 79.60, 76.4, 45, 4.7, 57.55520, 34.60220, 29.7987, 34.6022, 57.5552, 68.00, 27.9306, 1540.74, 69.80, 63.3, 5.04, 3.9, 3E
2009/04/11, 01:07:22, , , 27.08, 27.10, 1009.1, 2.9215950, -102.9737830, 295.20, 12.53, 290.50, 1008.90, 0.50, 0.0, 177.81, 79.46, 75.9, 42, 4.7, 57.55300, 34.60320, 29.7952, 34.6032, 57.5530, 68.00, 27.9284, 1540.74, 67.40, 70.9, 5.10, 4.4, 3E
2009/04/11, 01:08:22, , , 27.09, 27.00, 1009.3, 2.9227470, -102.9769230, 289.50, 12.22, 291.10, 1008.85, 0.40, 0.0, 177.81, 79.34, 76.2, 47, 3.8, 57.55220, 34.60410, 29.7931, 34.6041, 57.5522, 67.70, 27.9274, 1540.74, 72.30, 73.9, 4.96, 4.2, 3E
2009/04/11, 01:09:23, , , 27.09, 27.00, 1009.2, 2.9239730, -102.9801870, 288.80, 12.35, 290.80, 1008.98, 0.10, 0.0, 177.81, 79.74, 76.2, 41, 4.5, 57.55270, 34.60420, 29.7935, 34.6042, 57.5527, 67.70, 27.9263, 1540.73, 74.90, 70.0, 4.68, 4.3, 3E
2009/04/11, 01:10:22, , , 27.09, 27.00, 1009.1, 2.9251520, -102.9833630, 289.20, 12.13, 291.00, 1009.03, 0.10, 0.0, 177.81, 79.56, 76.2, 34, 4.2, 57.55220, 34.60460, 29.7924, 34.6046, 57.5522, 67.40, 27.9276, 1540.74, 75.00, 80.7, 4.80, 4.0, 3E
2009/04/11, 01:11:23, , , 27.07, 27.00, 1009.1, 2.9263730, -102.9866400, 291.20, 12.27, 290.20, 1008.84, 0.10, 0.0, 177.81, 78.97, 75.3, 40, 4.1, 57.55410, 34.60410, 29.7950, 34.6041, 57.5541, 67.10, 27.9284, 1540.74, 71.60, 76.1, 4.82, 3.9, 3E
2009/04/11, 01:12:22, , , 27.03, 27.00, 1009.1, 2.9275430, -102.9898620, 287.80, 12.75, 289.90, 1009.06, -0.20, 0.0, 177.81, 78.66, 75.6, 33, 3.9, 57.55520, 34.60340, 29.7969, 34.6034, 57.5552, 67.70, 27.9276, 1540.74, 78.20, 77.4, 4.22, 3.4, 3E
2009/04/11, 01:13:23, , , 27.13, 27.10, 1009.2, 2.9287270, -102.9930800, 291.80, 12.46, 290.20, 1008.97, -0.40, 0.0, 177.81, 79.32, 75.9, 39, 4.7, 57.55240, 34.60280, 29.7952, 34.6028, 57.5524, 67.70, 27.9250, 1540.73, 70.60, 61.4, 4.86, 4.0, 3E
2009/04/11, 01:14:23, , , 27.09, 27.10, 1009.2, 2.9298780, -102.9963280, 287.50, 12.32, 289.80, 1008.85, -0.30, 0.0, 177.81, 78.72, 74.8, 41, 4.3, 57.55110, 34.60180, 29.7953, 34.6018, 57.5511, 67.70, 27.9248, 1540.73, 70.20, 68.4, 5.04, 4.3, 3E
2009/04/11, 01:15:22, , , 27.11, 27.10, 1009.2, 2.9309680, -102.9995030, 290.00, 12.44, 290.60, 1008.93, -0.40, 0.0, 177.81, 78.44, 74.8, 40, 3.7, 57.55330, 34.60120, 29.7982, 34.6012, 57.5533, 67.40, 27.9276, 1540.73, 73.80, 78.6, 4.60, 3.7, 3E
2009/04/11, 01:16:22, , , 27.09, 27.10, 1009.3, 2.9321670, -103.0027100, 291.80, 12.30, 290.30, 1009.08, -0.50, 0.0, 177.81, 78.15, 76.0, 40, 3.9, 57.55410, 34.60140, 29.7987, 34.6014, 57.5541, 67.70, 27.9303, 1540.74, 78.10, 78.8, 4.71, 3.9, 3E
2009/04/11, 01:17:22, , , 27.18, 27.10, 1009.1, 2.9333520, -103.0059450, 297.00, 12.52, 291.20, 1009.04, -0.50, 0.0, 177.81, 78.72, 74.8, 36, 3.7, 57.55020, 34.59980, 29.7974, 34.5998, 57.5502, 67.70, 27.9341, 1540.75, 72.60, 73.7, 5.02, 4.3, 3E
2009/04/11, 01:18:22, , , 27.12, 27.10, 1009.2, 2.9345780, -103.0091630, 288.30, 12.17, 291.20, 1009.14, -0.60, 0.0, 177.81, 78.71, 74.9, 30, 3.6, 57.54610, 34.60020, 29.7929, 34.6002, 57.5461, 67.70, 27.9388, 1540.76, 84.60, 95.0, 4.48, 4.1, 3E
2009/04/11, 01:19:22, , , 27.19, 27.10, 1009.0, 2.9357680, -103.0124000, 290.80, 12.28, 290.90, 1009.06, -0.40, 0.0, 177.81, 79.04, 76.2, 38, 4.1, 57.53870, 34.59960, 29.7866, 34.5996, 57.5387, 68.30, 27.9432, 1540.77, 79.70, 68.4, 4.59, 4.2, 3E
2009/04/11, 01:20:22, , , 27.18, 27.10, 1009.1, 2.9369950, -103.0156920, 285.80, 12.05, 290.40, 1009.16, -0.40, 0.0, 177.81, 79.03, 76.4, 36, 4.1, 57.53890, 34.60010, 29.7862, 34.6001, 57.5389, 68.30, 27.9464, 1540.77, 83.50, 73.3, 4.44, 3.7, 3E
2009/04/11, 01:21:23, , , 27.18, 27.10, 1009.4, 2.9381530, -103.0189280, 293.30, 12.48, 291.70, 1008.99, -0.50, 0.0, 177.81, 79.27, 76.5, 41, 4.5, 57.53730, 34.60110, 29.7833, 34.6011, 57.5373, 68.60, 27.9487, 1540.78, 74.60, 74.5, 5.14, 3.7, 3E
2009/04/11, 01:22:22, , , 27.19, 27.10, 1009.4, 2.9394250, -103.0222750, 290.20, 12.80, 291.50, 1009.21, -0.60, 0.0, 177.81, 80.00, 76.2, 34, 3.8, 57.52820, 34.60130, 29.7744, 34.6013, 57.5282, 68.60, 27.9512, 1540.79, 82.20, 88.3, 4.45, 3.5, 3E
2009/04/11, 01:23:22, , , 27.09, 27.10, 1009.4, 2.9406880, -103.0254650, 291.10, 12.82, 290.50, 1009.03, -0.50, 0.0, 177.81, 79.38, 76.5, 33, 3.6, 57.52460, 34.60150, 29.7708, 34.6015, 57.5246, 68.60, 27.9535, 1540.79, 73.00, 89.3, 4.31, 3.8, 3E
2009/04/11, 01:24:22, , , 27.10, 27.10, 1009.3, 2.9419180, -103.0287730, 291.70, 12.68, 290.30, 1008.96, -0.60, 0.0, 177.81, 79.61, 76.5, 33, 3.8, 57.51970, 34.60200, 29.7654, 34.6020, 57.5197, 68.60, 27.9556, 1540.80, 79.50, 77.4, 4.70, 3.8, 3E
2009/04/11, 01:25:23, , , 27.09, 27.10, 1009.3, 2.9430930, -103.0320380, 288.90, 12.27, 290.90, 1008.98, -0.60, 0.0, 177.81, 79.44, 77.4, 30, 4.0, 57.51860, 34.60250, 29.7636, 34.6025, 57.5186, 68.30, 27.9557, 1540.80, 78.10, 80.4, 4.66, 3.5, 3E
2009/04/11, 01:26:23, , , 27.05, 27.00, 1009.3, 2.9442750, -103.0353000, 286.80, 12.75, 291.70, 1009.18, -0.50, 0.0, 177.81, 78.81, 75.1, 39, 3.9, 57.51330, 34.60290, 29.7581, 34.6029, 57.5133, 68.90, 27.9573, 1540.80, 73.80, 75.6, 4.61, 4.1, 3E
2009/04/11, 01:27:23, , , 27.04, 27.00, 1009.3, 2.9454950, -103.0384820, 294.40, 12.22, 291.00, 1009.21, -0.50, 0.0, 177.81, 78.41, 75.1, 36, 3.6, 57.51160, 34.60370, 29.7553, 34.6037, 57.5116, 68.60, 27.9578, 1540.80, 74.80, 81.6, 5.06, 4.1, 3E
2009/04/11, 01:28:22, , , 27.13, 27.00, 1009.5, 2.9467200, -103.0417220, 287.20, 12.61, 290.00, 1008.91, -0.40, 0.0, 177.81, 78.84, 75.4, 43, 3.6, 57.50840, 34.60350, 29.7525, 34.6035, 57.5084, 68.30, 27.9589, 1540.80, 74.70, 80.9, 4.72, 3.8, 3E
2009/04/11, 01:29:22, , , 27.11, 27.10, 1009.4, 2.9478870, -103.0450050, 289.70, 12.29, 290.50, 1009.46, -0.60, 0.0, 177.81, 78.34, 75.1, 25, 3.4, 57.50810, 34.60380, 29.7519, 34.6038, 57.5081, 68.90, 27.9598, 1540.81, 83.90, 85.1, 5.01, 4.2, 3E
2009/04/11, 01:30:22, , , 27.19, 27.10, 1009.4, 2.9490920, -103.0482670, 292.90, 12.69, 290.50, 1009.12, -0.50, 0.0, 177.81, 79.05, 76.0, 30, 4.0, 57.50340, 34.60320, 29.7483, 34.6032, 57.5034, 68.60, 27.9596, 1540.81, 74.50, 77.0, 4.98, 4.3, 3E
2009/04/11, 01:31:22, , , 27.21, 27.10, 1009.4, 2.9503450, -103.0515420, 290.30, 12.68, 291.10, 1009.13, -0.60, 0.0, 177.81, 79.48, 76.3, 33, 4.0, 57.49930, 34.60340, 29.7442, 34.6034, 57.4993, 68.90, 27.9577, 1540.80, 75.40, 76.1, 4.49, 3.9, 3E
2009/04/11, 01:32:22, , , 27.16, 27.10, 1009.5, 2.9515130, -103.0548050, 285.80, 12.26, 290.60, 1009.14, -0.40, 0.0, 177.81, 79.46, 75.5, 45, 4.3, 57.49760, 34.60410, 29.7416, 34.6041, 57.4976, 69.20, 27.9545, 1540.80, 79.30, 73.9, 4.72, 4.2, 3E
2009/04/11, 01:33:22, , , 27.05, 27.10, 1009.5, 2.9527580, -103.0580230, 292.60, 12.48, 290.40, 1009.34, -0.60, 0.0, 177.81, 78.77, 74.7, 39, 3.5, 57.49630, 34.60500, 29.7390, 34.6050, 57.4963, 68.90, 27.9515, 1540.79, 76.20, 76.5, 4.94, 4.4, 3E
2009/04/11, 01:34:22, , , 27.09, 27.10, 1009.5, 2.9538850, -103.0612330, 283.90, 12.96, 290.80, 1009.24, -0.30, 0.0, 177.81, 78.46, 74.0, 43, 3.4, 57.49320, 34.60450, 29.7369, 34.6045, 57.4932, 69.60, 27.9478, 1540.78, 79.40, 78.6, 4.95, 4.3, 3E